Погода в Котласе

Погода в Котласе : погода сейчас, прогноз погоды и архив. Всё, что Вы хотите узнать о погоде в Котласе!

Поиск расширенной информации на нашем сайте:

Другие новости

Новости СМИ2

Главная страница сайта

Новости сайта

03.07.2017

Напоминаем, что на нашем специализированном сайте Метеоцентр.Азия вы можете получить высокодетализированные автоматические прогнозы погоды по пунктам России, СНГ и мира в авиационном формате (включающие направление и скорость ветра, видимость, явления погоды, количество и форму облачности, нижнюю и верхнюю границу облачности).


Погода в Котласе - сегодня

Время (UTC), дата Ветер
(°,м/с) 
Видим.   Явления Облачность Т
(°С)
Тd
(°С)
f(%) Тe
(°С)
Pmin
(гПа)
dP
(гПа)
Po
(мм)
O2
(г/м3)
Тmin Tmax R s Состояние
почвы
15 19.02.18 120 (ЮВ) 10 км  слаб. ливневой снег  10/8 270 м кучево-дожд., средняя 
[Cb cap|Ac und]
-8.5 -9.2 95 -8  1017.8  -0.1  758  316    -5.9     
00 20.02.18 тихо ()   10 км  {ливн. осадки}  8/4 300 м средняя, верхняя 
[Sc|Ac trans|Ci fib]
-15.3 -16.6 90 -15  1016.3  -0.4  757  324           
03 20.02.18 тихо ()   10 км  слаб. снег  10/6 270 м средняя 
[Frnb|As op]
-15.2 -16.5 90 -15  1015.8  -0.5  756  324  -15.5    0.8  64  равномерный
сухой снег
100% 
18 20.02.18 310 (СЗ) 6000 м  слаб. ливневой снег  10/4 300 м кучево-дожд., верхняя 
[Cb cap|Ci fib]
-12.1 -13.4 90 -12  1015.4  756  320           
21 20.02.18 320 (СЗ) 10 км  слаб. ливневой снег  10/3 300 м кучево-дожд., верхняя 
[Cb cap|Ci fib]
-14.9 -16.2 90 -15  1015.3  -0.3  756  324           
00 21.02.18 340 (С) 10 км  слаб. ливневой снег  10/4 300 м кучево-дожд., средняя, верхняя 
[Cb cap|Ac trans|Ci fib]
-16.4 -17.7 90 -17  1015.6  0.3  756  326           
03 21.02.18 300 (СЗ) 10 км  слаб. ливневой снег  10/4 300 м кучево-дожд., средняя 
[Cb cap|Ac und]
-17.9 -19.8 85 -20  1015.9  0.2  756  328  -17.9    0.6  65  равномерный
сухой снег
100% 
15 21.02.18 320 (СЗ) 10 км  слаб. ливневой снег  10/8 330 м кучево-дожд., средняя 
[Cb cap|Ac und]
-16.4 -18.3 85 -20  1018.2  0.6  758  326    -16  0.5     
18 21.02.18 320 (СЗ) 10 км  слаб. ливневой снег  4/3 600 м кучево-дожд., верхняя 
[Cb cap|Ci fib]
-18.4 -20.3 85 -23  1019  0.6  758  329           
21 21.02.18 330 (СЗ) 10 км  слаб. ливневой снег  6/4 600 м кучево-дожд., верхняя 
[Cb cap|Ci fib]
-20 -21.9 85 -23  1019.8  0.8  759  332           
00 22.02.18 320 (СЗ) 10 км  {ливн. осадки}  10/0 средняя, верхняя 
[Ac trans|Ci fib]
-22.2 -24 85 -25  1020.8  760  335           
09 22.02.18 300 (СЗ) 20000 м    4/0 верхняя 
[Ci fib]
-18.4 -20.3 85 -23  1021.9  -0.2  761  330           
12 22.02.18 300 (СЗ) 20000 м    4/0 верхняя 
[Ci fib]
-14.5 -18.8 70 -17  1021.4  -0.3  760  325           
18 22.02.18 тихо ()   10 км    6/0 верхняя 
[Ci fib]
-23.4 -25.2 85 -23  1021.1  -0.2  760  337           
21 22.02.18 тихо ()   10 км    3/0 верхняя 
[Ci fib]
-24 -25.8 85 -24  1021.4  0.3  760  338           
00 23.02.18 120 (ЮВ) 10 км    1/0 верхняя 
[Ci fib]
-25.8 -27.6 85 -26  1021.6  0.2  760  340           
03 23.02.18 тихо ()   10 км  слаб. ливневой снег  6/3 600 м кучево-дожд., средняя, верхняя 
[Cb cap|Ac trans|Ci fib]
-25.4 -27.2 85 -25  1021.3  -0.3  760  339  -26    0.0  64  равномерный
сухой снег
100% 
06 23.02.18 320 (СЗ) 20000 м  в посл. час ливневой снег  10/5 300 м кучево-дожд., средняя, верхняя 
[Cb cap|Ac trans|Ci fib]
-21 -22.8 85 -24  1021.1  760  333           
09 23.02.18 310 (СЗ) 10 км  слаб. снег  10/4 300 м средняя 
[Frnb|As op]
-17.7 -20.3 80 -22  1021.1  760  329           
15 23.02.18 320 (СЗ) 6000 м  слаб. снег  10/8 270 м средняя 
[Frnb|As op]
-17.5 -19.4 85 -20  1022  1.1  761  329    -15.5  0.4     
21 23.02.18 310 (СЗ) 10 км  {снег}  8/0 средняя, верхняя 
[Ac trans|Ci fib]
-24.8 -26.6 85 -25  1024  0.9  762  340           
00 24.02.18 320 (СЗ) 10 км  {снег}  10/0 средняя, верхняя 
[Ac trans|Ci fib]
-25.1 -26.9 85 -28  1025.5  1.9  763  340           
03 24.02.18 320 (СЗ) 10 км  слаб. ливневой снег  10/8 330 м кучево-дожд., средняя, верхняя 
[Cb cap|Ac trans|Ci fib]
-23.4 -25.2 85 -28  1026.2  0.7  764  338  -26.6    0.3  64  равномерный
сухой снег
100% 
06 24.02.18 320 (СЗ) 20000 м  {ливн. осадки}  3/0 средняя, верхняя 
[Ac trans|Ci fib]
-23.4 -25.9 80 -28  1027.5  1.3  765  339           
09 24.02.18 300 (СЗ) 20000 м    8/0 средняя, верхняя 
[Ac trans|Ci fib]
-20.5 -23 80 -23  1028.2  0.8  765  335           
Время (UTC), дата Ветер
(°,м/с) 
Видим.   Явления Облачность Т
(°С)
Тd
(°С)
f(%) Тe
(°С)
Pmin
(гПа)
dP
(гПа)
Po
(мм)
O2
(г/м3)
Тmin Tmax R s Состояние
почвы

Для получения пояснительной информации подведите курсор к названию столбца.

ПОГОДА в Котласе - архив

Всё, что Вы хотите узнать о погоде в Котласе - удобно и подробно!

Выберите нужную дату (начиная с 1 января 2015* года) и нажмите кнопку "Найти".
Будут отображены архивные сводки погоды по пункту Котлас, начиная с указанной даты.


Отображать данные в формате CSV (для использования в таблицах Excel)


Внимание! Наш архив погоды предназначен исключительно для личного некоммерческого использования в познавательных целях. Если Вам необходимы официальные справки о состоянии погоды (для производственных, юридических, коммерческих и т.п. целей), обращайтесь в органы Росгидромета.

*Примечание: данная дата относится к архиву по метеостанциям СССР (Россия, СНГ, Балтия).
Архив по метеостанциям Зарубежной Европы и Азии (кроме Китая) хранится 10 дней, по другим регионам земного шара (Китай, Африка, Америка, Австралия, Океания) - 1 день.

Котлас - район местоположения метеостанции


Название, широта, долгота, высота метеостанции:
Котлас 61.2°ш. 46.7°д. 56 м над ур. моря [Российская Федерация]

Дополнительная информация

В oтличие oт бoльшинства пoгoдных сайтoв мы публикуем пoдрoбную метеoинфoрмацию в детальнoм прoфессиoнальнoм фoрмате.

Характеристики температуры и влажнoсти вoздуха измеряются на высoте 2 м в тени вдали oт зданий и деревьев.
Скoрoсть ветра измеряется на высoте 10 м (на урoвне рoста челoвека скoрoсть ветра ниже в 1.5-2 раза). Если метеoстанция нахoдится в гoрoде или в лесу, тo скoрoсть ветра занижена на 2-4 м/с пo сравнению с oткрытым местoм. Скoрoсть ветра над акватoриями крупных рек и oзёр, а также на вершинах хoлмoв на 2-5 м/с выше, чем в oбычных услoвиях.
Атмoсфернoе давление в разных тoчках местнoсти мoжет значительнo oтличаться oт давления на метеoстанции, в зависимoсти oт услoвий рельефа (при пoдъёме на 10 м давление пoнижается примернo на 1 мм рт.ст.).